OBJECT C

Last updated on March 11, 2020, 12:02 a.m. UTC

1 45343U 20016C   20070.13802752  .01927736  11542-4  15570-2 0  9997
2 45343  51.6265 117.8560 0099960  59.1927 301.9909 16.03361796   474

Satellite is not in orbit.